owner,sensor,date,latitude,longitude,vertical_datum,wind_speed,wind_to_direction,wind_speed_of_gust,qcFlag 
LUMCON,ioos:station:LUMCON:101:1,2015-02-01T00:45:00Z,29.2533,-90.6633,1.0,10.5,82.0,-9999.0,'1111122,1111122,1111122' 
LUMCON,ioos:station:LUMCON:101:1,2015-02-01T01:45:00Z,29.2533,-90.6633,1.0,8.9,86.0,-9999.0,'1111122,1111122,1111122' 
LUMCON,ioos:station:LUMCON:101:1,2015-02-01T02:45:00Z,29.2533,-90.6633,1.0,10.2,97.0,-9999.0,'1111122,1111122,1111122' 
LUMCON,ioos:station:LUMCON:101:1,2015-02-01T03:45:00Z,29.2533,-90.6633,1.0,8.9,86.0,-9999.0,'1111122,1111122,1111122' 
LUMCON,ioos:station:LUMCON:101:1,2015-02-01T04:45:00Z,29.2533,-90.6633,1.0,6.4,97.0,-9999.0,'1111122,1111122,1111122' 
LUMCON,ioos:station:LUMCON:101:1,2015-02-01T05:45:00Z,29.2533,-90.6633,1.0,2.1,237.0,-9999.0,'1111122,1111122,1111122' 
LUMCON,ioos:station:LUMCON:101:1,2015-02-01T06:45:00Z,29.2533,-90.6633,1.0,7.4,94.0,-9999.0,'1111122,1111122,1111122' 
LUMCON,ioos:station:LUMCON:101:1,2015-02-01T07:45:00Z,29.2533,-90.6633,1.0,10.0,126.0,-9999.0,'1111122,1111122,1111122' 
LUMCON,ioos:station:LUMCON:101:1,2015-02-01T08:45:00Z,29.2533,-90.6633,1.0,8.6,127.0,-9999.0,'1111122,1111122,1111122' 
LUMCON,ioos:station:LUMCON:101:1,2015-02-01T09:45:00Z,29.2533,-90.6633,1.0,7.6,127.0,-9999.0,'1111122,1111122,1111122' 
LUMCON,ioos:station:LUMCON:101:1,2015-02-01T10:45:00Z,29.2533,-90.6633,1.0,5.5,105.0,-9999.0,'1111122,1111122,1111122' 
LUMCON,ioos:station:LUMCON:101:1,2015-02-01T11:45:00Z,29.2533,-90.6633,1.0,3.4,101.0,-9999.0,'1111122,1111122,1111122' 
LUMCON,ioos:station:LUMCON:101:1,2015-02-01T12:45:00Z,29.2533,-90.6633,1.0,4.6,172.0,-9999.0,'1111122,1111122,1111122' 
LUMCON,ioos:station:LUMCON:101:1,2015-02-01T13:45:00Z,29.2533,-90.6633,1.0,2.1,156.0,-9999.0,'1111122,1111122,1111122' 
LUMCON,ioos:station:LUMCON:101:1,2015-02-01T14:45:00Z,29.2533,-90.6633,1.0,9.5,201.0,-9999.0,'1111122,1111122,1111122' 
LUMCON,ioos:station:LUMCON:101:1,2015-02-01T15:30:00Z,29.2533,-90.6633,1.0,10.3,197.0,-9999.0,'1111122,1111122,1111122' 
LUMCON,ioos:station:LUMCON:101:1,2015-02-01T16:45:00Z,29.2533,-90.6633,1.0,7.8,205.0,-9999.0,'1111122,1111122,1111122' 
LUMCON,ioos:station:LUMCON:101:1,2015-02-01T17:45:00Z,29.2533,-90.6633,1.0,9.4,209.0,-9999.0,'1111122,1111122,1111122' 
LUMCON,ioos:station:LUMCON:101:1,2015-02-01T18:45:00Z,29.2533,-90.6633,1.0,10.7,205.0,-9999.0,'1111122,1111122,1111122' 
LUMCON,ioos:station:LUMCON:101:1,2015-02-01T19:45:00Z,29.2533,-90.6633,1.0,10.6,207.0,-9999.0,'1111122,1111122,1111122' 
LUMCON,ioos:station:LUMCON:101:1,2015-02-01T20:45:00Z,29.2533,-90.6633,1.0,11.0,208.0,-9999.0,'1111122,1111122,1111122' 
LUMCON,ioos:station:LUMCON:101:1,2015-02-01T21:45:00Z,29.2533,-90.6633,1.0,12.5,215.0,-9999.0,'1111122,1111122,1111122' 
LUMCON,ioos:station:LUMCON:101:1,2015-02-01T22:45:00Z,29.2533,-90.6633,1.0,11.2,239.0,-9999.0,'1111122,1111122,1111122' 
LUMCON,ioos:station:LUMCON:101:1,2015-02-01T23:45:00Z,29.2533,-90.6633,1.0,19.5,258.0,-9999.0,'1111122,1111122,1111122' 
LUMCON,ioos:station:LUMCON:101:1,2015-02-02T00:45:00Z,29.2533,-90.6633,1.0,22.3,330.0,-9999.0,'1111122,1111122,1111122' 
LUMCON,ioos:station:LUMCON:101:1,2015-02-02T01:45:00Z,29.2533,-90.6633,1.0,21.4,322.0,-9999.0,'1111122,1111122,1111122' 
LUMCON,ioos:station:LUMCON:101:1,2015-02-02T02:45:00Z,29.2533,-90.6633,1.0,24.8,309.0,-9999.0,'1111122,1111122,1111122' 
LUMCON,ioos:station:LUMCON:101:1,2015-02-02T03:45:00Z,29.2533,-90.6633,1.0,15.0,322.0,-9999.0,'1111122,1111122,1111122' 
LUMCON,ioos:station:LUMCON:101:1,2015-02-02T04:45:00Z,29.2533,-90.6633,1.0,17.1,302.0,-9999.0,'1111122,1111122,1111122' 
LUMCON,ioos:station:LUMCON:101:1,2015-02-02T05:45:00Z,29.2533,-90.6633,1.0,22.0,307.0,-9999.0,'1111122,1111122,1111122' 
LUMCON,ioos:station:LUMCON:101:1,2015-02-02T06:45:00Z,29.2533,-90.6633,1.0,26.3,328.0,-9999.0,'1111122,1111122,1111122' 
LUMCON,ioos:station:LUMCON:101:1,2015-02-02T07:45:00Z,29.2533,-90.6633,1.0,19.5,313.0,-9999.0,'1111122,1111122,1111122' 
LUMCON,ioos:station:LUMCON:101:1,2015-02-02T08:45:00Z,29.2533,-90.6633,1.0,26.0,314.0,-9999.0,'1111122,1111122,1111122' 
LUMCON,ioos:station:LUMCON:101:1,2015-02-02T09:45:00Z,29.2533,-90.6633,1.0,16.9,324.0,-9999.0,'1111122,1111122,1111122' 
LUMCON,ioos:station:LUMCON:101:1,2015-02-02T10:45:00Z,29.2533,-90.6633,1.0,18.8,334.0,-9999.0,'1111122,1111122,1111122' 
LUMCON,ioos:station:LUMCON:101:1,2015-02-02T11:45:00Z,29.2533,-90.6633,1.0,13.7,334.0,-9999.0,'1111122,1111122,1111122' 
LUMCON,ioos:station:LUMCON:101:1,2015-02-02T12:45:00Z,29.2533,-90.6633,1.0,18.3,352.0,-9999.0,'1111122,1111122,1111122' 
LUMCON,ioos:station:LUMCON:101:1,2015-02-02T13:45:00Z,29.2533,-90.6633,1.0,15.2,334.0,-9999.0,'1111122,1111122,1111122' 
LUMCON,ioos:station:LUMCON:101:1,2015-02-02T14:45:00Z,29.2533,-90.6633,1.0,11.4,6.0,-9999.0,'1111122,1111122,1111122' 
LUMCON,ioos:station:LUMCON:101:1,2015-02-02T15:45:00Z,29.2533,-90.6633,1.0,12.3,337.0,-9999.0,'1111122,1111122,1111122' 
LUMCON,ioos:station:LUMCON:101:1,2015-02-02T16:45:00Z,29.2533,-90.6633,1.0,14.5,339.0,-9999.0,'1111122,1111122,1111122' 
LUMCON,ioos:station:LUMCON:101:1,2015-02-02T19:45:00Z,29.2533,-90.6633,1.0,6.4,3.0,-9999.0,'1111122,1111122,1111122' 
LUMCON,ioos:station:LUMCON:101:1,2015-02-02T20:45:00Z,29.2533,-90.6633,1.0,6.7,3.0,-9999.0,'1111122,1111122,1111122' 
LUMCON,ioos:station:LUMCON:101:1,2015-02-02T21:45:00Z,29.2533,-90.6633,1.0,6.5,2.0,-9999.0,'1111122,1111122,1111122' 
LUMCON,ioos:station:LUMCON:101:1,2015-02-02T22:45:00Z,29.2533,-90.6633,1.0,10.3,347.0,-9999.0,'1111122,1111122,1111122' 
LUMCON,ioos:station:LUMCON:101:1,2015-02-03T00:45:00Z,29.2533,-90.6633,1.0,16.1,1.0,-9999.0,'1111122,1111122,1111122' 
LUMCON,ioos:station:LUMCON:101:1,2015-02-03T01:45:00Z,29.2533,-90.6633,1.0,12.4,8.0,-9999.0,'1111122,1111122,1111122' 
LUMCON,ioos:station:LUMCON:101:1,2015-02-03T02:45:00Z,29.2533,-90.6633,1.0,9.9,17.0,-9999.0,'1111122,1111122,1111122' 
LUMCON,ioos:station:LUMCON:101:1,2015-02-03T05:45:00Z,29.2533,-90.6633,1.0,14.2,19.0,-9999.0,'1111122,1111122,1111122' 
LUMCON,ioos:station:LUMCON:101:1,2015-02-03T06:45:00Z,29.2533,-90.6633,1.0,11.0,24.0,-9999.0,'1111122,1111122,1111122' 
LUMCON,ioos:station:LUMCON:101:1,2015-02-03T07:45:00Z,29.2533,-90.6633,1.0,9.4,23.0,-9999.0,'1111122,1111122,1111122' 
LUMCON,ioos:station:LUMCON:101:1,2015-02-03T08:45:00Z,29.2533,-90.6633,1.0,11.4,29.0,-9999.0,'1111122,1111122,1111122' 
LUMCON,ioos:station:LUMCON:101:1,2015-02-03T09:45:00Z,29.2533,-90.6633,1.0,6.7,54.0,-9999.0,'1111122,1111122,1111122' 
LUMCON,ioos:station:LUMCON:101:1,2015-02-03T10:45:00Z,29.2533,-90.6633,1.0,11.1,49.0,-9999.0,'1111122,1111122,1111122' 
LUMCON,ioos:station:LUMCON:101:1,2015-02-03T11:45:00Z,29.2533,-90.6633,1.0,8.5,43.0,-9999.0,'1111122,1111122,1111122' 
LUMCON,ioos:station:LUMCON:101:1,2015-02-03T12:45:00Z,29.2533,-90.6633,1.0,9.9,42.0,-9999.0,'1111122,1111122,1111122' 
LUMCON,ioos:station:LUMCON:101:1,2015-02-03T13:45:00Z,29.2533,-90.6633,1.0,9.6,55.0,-9999.0,'1111122,1111122,1111122' 
LUMCON,ioos:station:LUMCON:101:1,2015-02-03T14:45:00Z,29.2533,-90.6633,1.0,9.6,45.0,-9999.0,'1111122,1111122,1111122' 
LUMCON,ioos:station:LUMCON:101:1,2015-02-03T15:45:00Z,29.2533,-90.6633,1.0,7.9,27.0,-9999.0,'1111122,1111122,1111122' 
LUMCON,ioos:station:LUMCON:101:1,2015-02-03T16:45:00Z,29.2533,-90.6633,1.0,9.3,16.0,-9999.0,'1111122,1111122,1111122' 
LUMCON,ioos:station:LUMCON:101:1,2015-02-03T17:45:00Z,29.2533,-90.6633,1.0,8.2,29.0,-9999.0,'1111122,1111122,1111122' 
LUMCON,ioos:station:LUMCON:101:1,2015-02-03T18:45:00Z,29.2533,-90.6633,1.0,8.8,9.0,-9999.0,'1111122,1111122,1111122' 
LUMCON,ioos:station:LUMCON:101:1,2015-02-03T19:45:00Z,29.2533,-90.6633,1.0,8.6,355.0,-9999.0,'1111122,1111122,1111122' 
LUMCON,ioos:station:LUMCON:101:1,2015-02-03T20:45:00Z,29.2533,-90.6633,1.0,8.6,5.0,-9999.0,'1111122,1111122,1111122' 
LUMCON,ioos:station:LUMCON:101:1,2015-02-03T21:45:00Z,29.2533,-90.6633,1.0,11.3,15.0,-9999.0,'1111122,1111122,1111122' 
LUMCON,ioos:station:LUMCON:101:1,2015-02-03T22:45:00Z,29.2533,-90.6633,1.0,12.7,31.0,-9999.0,'1111122,1111122,1111122' 
LUMCON,ioos:station:LUMCON:101:1,2015-02-03T23:45:00Z,29.2533,-90.6633,1.0,10.8,38.0,-9999.0,'1111122,1111122,1111122' 
LUMCON,ioos:station:LUMCON:101:1,2015-02-04T00:45:00Z,29.2533,-90.6633,1.0,11.5,42.0,-9999.0,'1111122,1111122,1111122' 
LUMCON,ioos:station:LUMCON:101:1,2015-02-04T01:45:00Z,29.2533,-90.6633,1.0,7.7,44.0,-9999.0,'1111122,1111122,1111122' 
LUMCON,ioos:station:LUMCON:101:1,2015-02-04T02:45:00Z,29.2533,-90.6633,1.0,9.3,355.0,-9999.0,'1111122,1111122,1111122' 
LUMCON,ioos:station:LUMCON:101:1,2015-02-04T03:45:00Z,29.2533,-90.6633,1.0,13.3,10.0,-9999.0,'1111122,1111122,1111122' 
LUMCON,ioos:station:LUMCON:101:1,2015-02-04T04:45:00Z,29.2533,-90.6633,1.0,10.0,18.0,-9999.0,'1111122,1111122,1111122' 
LUMCON,ioos:station:LUMCON:101:1,2015-02-04T05:45:00Z,29.2533,-90.6633,1.0,9.8,28.0,-9999.0,'1111122,1111122,1111122' 
LUMCON,ioos:station:LUMCON:101:1,2015-02-04T06:45:00Z,29.2533,-90.6633,1.0,11.8,37.0,-9999.0,'1111122,1111122,1111122' 
LUMCON,ioos:station:LUMCON:101:1,2015-02-04T07:45:00Z,29.2533,-90.6633,1.0,11.5,27.0,-9999.0,'1111122,1111122,1111122' 
LUMCON,ioos:station:LUMCON:101:1,2015-02-04T08:45:00Z,29.2533,-90.6633,1.0,9.0,31.0,-9999.0,'1111122,1111122,1111122' 
LUMCON,ioos:station:LUMCON:101:1,2015-02-04T09:45:00Z,29.2533,-90.6633,1.0,9.6,30.0,-9999.0,'1111122,1111122,1111122' 
LUMCON,ioos:station:LUMCON:101:1,2015-02-04T10:45:00Z,29.2533,-90.6633,1.0,11.9,14.0,-9999.0,'1111122,1111122,1111122' 
LUMCON,ioos:station:LUMCON:101:1,2015-02-04T11:45:00Z,29.2533,-90.6633,1.0,16.3,11.0,-9999.0,'1111122,1111122,1111122' 
LUMCON,ioos:station:LUMCON:101:1,2015-02-04T12:45:00Z,29.2533,-90.6633,1.0,17.6,15.0,-9999.0,'1111122,1111122,1111122' 
LUMCON,ioos:station:LUMCON:101:1,2015-02-04T13:45:00Z,29.2533,-90.6633,1.0,14.5,40.0,-9999.0,'1111122,1111122,1111122' 
LUMCON,ioos:station:LUMCON:101:1,2015-02-04T14:45:00Z,29.2533,-90.6633,1.0,15.7,21.0,-9999.0,'1111122,1111122,1111122' 
LUMCON,ioos:station:LUMCON:101:1,2015-02-04T15:45:00Z,29.2533,-90.6633,1.0,12.9,27.0,-9999.0,'1111122,1111122,1111122' 
LUMCON,ioos:station:LUMCON:101:1,2015-02-04T16:45:00Z,29.2533,-90.6633,1.0,17.4,61.0,-9999.0,'1111122,1111122,1111122' 
LUMCON,ioos:station:LUMCON:101:1,2015-02-04T18:45:00Z,29.2533,-90.6633,1.0,8.9,346.0,-9999.0,'1111122,1111122,1111122' 
LUMCON,ioos:station:LUMCON:101:1,2015-02-04T19:45:00Z,29.2533,-90.6633,1.0,11.6,326.0,-9999.0,'1111122,1111122,1111122' 
LUMCON,ioos:station:LUMCON:101:1,2015-02-04T20:45:00Z,29.2533,-90.6633,1.0,14.9,351.0,-9999.0,'1111122,1111122,1111122' 
LUMCON,ioos:station:LUMCON:101:1,2015-02-04T21:45:00Z,29.2533,-90.6633,1.0,16.3,347.0,-9999.0,'1111122,1111122,1111122' 
LUMCON,ioos:station:LUMCON:101:1,2015-02-04T22:45:00Z,29.2533,-90.6633,1.0,15.3,349.0,-9999.0,'1111122,1111122,1111122' 
LUMCON,ioos:station:LUMCON:101:1,2015-02-04T23:45:00Z,29.2533,-90.6633,1.0,10.4,354.0,-9999.0,'1111122,1111122,1111122' 
LUMCON,ioos:station:LUMCON:101:1,2015-02-05T00:45:00Z,29.2533,-90.6633,1.0,8.2,357.0,-9999.0,'1111122,1111122,1111122' 
LUMCON,ioos:station:LUMCON:101:1,2015-02-05T01:45:00Z,29.2533,-90.6633,1.0,14.2,346.0,-9999.0,'1111122,1111122,1111122' 
LUMCON,ioos:station:LUMCON:101:1,2015-02-05T02:45:00Z,29.2533,-90.6633,1.0,12.8,349.0,-9999.0,'1111122,1111122,1111122' 
LUMCON,ioos:station:LUMCON:101:1,2015-02-05T03:45:00Z,29.2533,-90.6633,1.0,11.9,340.0,-9999.0,'1111122,1111122,1111122' 
LUMCON,ioos:station:LUMCON:101:1,2015-02-05T04:45:00Z,29.2533,-90.6633,1.0,10.7,350.0,-9999.0,'1111122,1111122,1111122' 
LUMCON,ioos:station:LUMCON:101:1,2015-02-05T05:45:00Z,29.2533,-90.6633,1.0,12.8,348.0,-9999.0,'1111122,1111122,1111122' 
LUMCON,ioos:station:LUMCON:101:1,2015-02-05T06:45:00Z,29.2533,-90.6633,1.0,11.2,344.0,-9999.0,'1111122,1111122,1111122' 
LUMCON,ioos:station:LUMCON:101:1,2015-02-05T07:45:00Z,29.2533,-90.6633,1.0,10.8,348.0,-9999.0,'1111122,1111122,1111122' 
LUMCON,ioos:station:LUMCON:101:1,2015-02-05T08:45:00Z,29.2533,-90.6633,1.0,7.8,347.0,-9999.0,'1111122,1111122,1111122' 
LUMCON,ioos:station:LUMCON:101:1,2015-02-05T09:45:00Z,29.2533,-90.6633,1.0,15.0,335.0,-9999.0,'1111122,1111122,1111122' 
LUMCON,ioos:station:LUMCON:101:1,2015-02-05T10:45:00Z,29.2533,-90.6633,1.0,13.3,336.0,-9999.0,'1111122,1111122,1111122' 
LUMCON,ioos:station:LUMCON:101:1,2015-02-05T11:45:00Z,29.2533,-90.6633,1.0,19.0,348.0,-9999.0,'1111122,1111122,1111122' 
LUMCON,ioos:station:LUMCON:101:1,2015-02-05T12:45:00Z,29.2533,-90.6633,1.0,13.3,359.0,-9999.0,'1111122,1111122,1111122' 
LUMCON,ioos:station:LUMCON:101:1,2015-02-05T13:45:00Z,29.2533,-90.6633,1.0,12.4,325.0,-9999.0,'1111122,1111122,1111122' 
LUMCON,ioos:station:LUMCON:101:1,2015-02-05T14:45:00Z,29.2533,-90.6633,1.0,12.3,324.0,-9999.0,'1111122,1111122,1111122' 
LUMCON,ioos:station:LUMCON:101:1,2015-02-05T15:45:00Z,29.2533,-90.6633,1.0,11.0,316.0,-9999.0,'1111122,1111122,1111122' 
LUMCON,ioos:station:LUMCON:101:1,2015-02-05T16:45:00Z,29.2533,-90.6633,1.0,11.6,330.0,-9999.0,'1111122,1111122,1111122' 
LUMCON,ioos:station:LUMCON:101:1,2015-02-05T17:45:00Z,29.2533,-90.6633,1.0,7.1,331.0,-9999.0,'1111122,1111122,1111122' 
LUMCON,ioos:station:LUMCON:101:1,2015-02-05T18:45:00Z,29.2533,-90.6633,1.0,7.2,333.0,-9999.0,'1111122,1111122,1111122' 
LUMCON,ioos:station:LUMCON:101:1,2015-02-05T19:45:00Z,29.2533,-90.6633,1.0,12.9,325.0,-9999.0,'1111122,1111122,1111122' 
LUMCON,ioos:station:LUMCON:101:1,2015-02-05T20:45:00Z,29.2533,-90.6633,1.0,11.5,332.0,-9999.0,'1111122,1111122,1111122' 
LUMCON,ioos:station:LUMCON:101:1,2015-02-05T21:45:00Z,29.2533,-90.6633,1.0,12.1,352.0,-9999.0,'1111122,1111122,1111122' 
LUMCON,ioos:station:LUMCON:101:1,2015-02-05T22:45:00Z,29.2533,-90.6633,1.0,11.7,345.0,-9999.0,'1111122,1111122,1111122' 
LUMCON,ioos:station:LUMCON:101:1,2015-02-05T23:45:00Z,29.2533,-90.6633,1.0,10.3,347.0,-9999.0,'1111122,1111122,1111122' 
LUMCON,ioos:station:LUMCON:101:1,2015-02-06T00:45:00Z,29.2533,-90.6633,1.0,8.3,351.0,-9999.0,'1111122,1111122,1111122' 
LUMCON,ioos:station:LUMCON:101:1,2015-02-06T01:45:00Z,29.2533,-90.6633,1.0,9.0,353.0,-9999.0,'1111122,1111122,1111122' 
LUMCON,ioos:station:LUMCON:101:1,2015-02-06T02:45:00Z,29.2533,-90.6633,1.0,11.9,354.0,-9999.0,'1111122,1111122,1111122' 
LUMCON,ioos:station:LUMCON:101:1,2015-02-06T03:45:00Z,29.2533,-90.6633,1.0,12.6,351.0,-9999.0,'1111122,1111122,1111122' 
LUMCON,ioos:station:LUMCON:101:1,2015-02-06T04:45:00Z,29.2533,-90.6633,1.0,10.6,351.0,-9999.0,'1111122,1111122,1111122' 
LUMCON,ioos:station:LUMCON:101:1,2015-02-06T05:45:00Z,29.2533,-90.6633,1.0,9.7,357.0,-9999.0,'1111122,1111122,1111122' 
LUMCON,ioos:station:LUMCON:101:1,2015-02-06T06:45:00Z,29.2533,-90.6633,1.0,9.5,355.0,-9999.0,'1111122,1111122,1111122' 
LUMCON,ioos:station:LUMCON:101:1,2015-02-06T07:45:00Z,29.2533,-90.6633,1.0,7.6,16.0,-9999.0,'1111122,1111122,1111122' 
LUMCON,ioos:station:LUMCON:101:1,2015-02-06T08:45:00Z,29.2533,-90.6633,1.0,10.6,13.0,-9999.0,'1111122,1111122,1111122' 
LUMCON,ioos:station:LUMCON:101:1,2015-02-06T09:45:00Z,29.2533,-90.6633,1.0,11.5,13.0,-9999.0,'1111122,1111122,1111122' 
LUMCON,ioos:station:LUMCON:101:1,2015-02-06T10:45:00Z,29.2533,-90.6633,1.0,7.5,26.0,-9999.0,'1111122,1111122,1111122' 
LUMCON,ioos:station:LUMCON:101:1,2015-02-06T11:45:00Z,29.2533,-90.6633,1.0,9.0,48.0,-9999.0,'1111122,1111122,1111122' 
LUMCON,ioos:station:LUMCON:101:1,2015-02-06T12:45:00Z,29.2533,-90.6633,1.0,8.7,37.0,-9999.0,'1111122,1111122,1111122' 
LUMCON,ioos:station:LUMCON:101:1,2015-02-06T13:45:00Z,29.2533,-90.6633,1.0,8.2,73.0,-9999.0,'1111122,1111122,1111122' 
LUMCON,ioos:station:LUMCON:101:1,2015-02-06T14:45:00Z,29.2533,-90.6633,1.0,7.7,78.0,-9999.0,'1111122,1111122,1111122' 
LUMCON,ioos:station:LUMCON:101:1,2015-02-06T15:45:00Z,29.2533,-90.6633,1.0,6.1,79.0,-9999.0,'1111122,1111122,1111122' 
LUMCON,ioos:station:LUMCON:101:1,2015-02-06T16:45:00Z,29.2533,-90.6633,1.0,4.8,67.0,-9999.0,'1111122,1111122,1111122' 
LUMCON,ioos:station:LUMCON:101:1,2015-02-06T17:45:00Z,29.2533,-90.6633,1.0,5.8,93.0,-9999.0,'1111122,1111122,1111122' 
LUMCON,ioos:station:LUMCON:101:1,2015-02-06T18:45:00Z,29.2533,-90.6633,1.0,5.0,95.0,-9999.0,'1111122,1111122,1111122' 
LUMCON,ioos:station:LUMCON:101:1,2015-02-06T19:45:00Z,29.2533,-90.6633,1.0,4.3,101.0,-9999.0,'1111122,1111122,1111122' 
LUMCON,ioos:station:LUMCON:101:1,2015-02-06T20:45:00Z,29.2533,-90.6633,1.0,6.7,87.0,-9999.0,'1111122,1111122,1111122' 
LUMCON,ioos:station:LUMCON:101:1,2015-02-06T21:45:00Z,29.2533,-90.6633,1.0,4.6,90.0,-9999.0,'1111122,1111122,1111122' 
LUMCON,ioos:station:LUMCON:101:1,2015-02-06T22:45:00Z,29.2533,-90.6633,1.0,5.1,89.0,-9999.0,'1111122,1111122,1111122' 
LUMCON,ioos:station:LUMCON:101:1,2015-02-06T23:45:00Z,29.2533,-90.6633,1.0,5.6,93.0,-9999.0,'1111122,1111122,1111122' 
LUMCON,ioos:station:LUMCON:101:1,2015-02-07T00:45:00Z,29.2533,-90.6633,1.0,4.7,91.0,-9999.0,'1111122,1111122,1111122' 
LUMCON,ioos:station:LUMCON:101:1,2015-02-07T01:45:00Z,29.2533,-90.6633,1.0,4.0,93.0,-9999.0,'1111122,1111122,1111122' 
LUMCON,ioos:station:LUMCON:101:1,2015-02-07T02:45:00Z,29.2533,-90.6633,1.0,3.7,85.0,-9999.0,'1111122,1111122,1111122' 
LUMCON,ioos:station:LUMCON:101:1,2015-02-07T03:45:00Z,29.2533,-90.6633,1.0,4.5,53.0,-9999.0,'1111122,1111122,1111122' 
LUMCON,ioos:station:LUMCON:101:1,2015-02-07T04:45:00Z,29.2533,-90.6633,1.0,4.8,36.0,-9999.0,'1111122,1111122,1111122' 
LUMCON,ioos:station:LUMCON:101:1,2015-02-07T05:45:00Z,29.2533,-90.6633,1.0,4.8,36.0,-9999.0,'1111122,1111122,1111122' 
LUMCON,ioos:station:LUMCON:101:1,2015-02-07T06:45:00Z,29.2533,-90.6633,1.0,6.8,47.0,-9999.0,'1111122,1111122,1111122' 
LUMCON,ioos:station:LUMCON:101:1,2015-02-07T07:45:00Z,29.2533,-90.6633,1.0,6.7,68.0,-9999.0,'1111122,1111122,1111122' 
LUMCON,ioos:station:LUMCON:101:1,2015-02-07T08:45:00Z,29.2533,-90.6633,1.0,6.4,66.0,-9999.0,'1111122,1111122,1111122' 
LUMCON,ioos:station:LUMCON:101:1,2015-02-07T09:45:00Z,29.2533,-90.6633,1.0,5.8,74.0,-9999.0,'1111122,1111122,1111122' 
LUMCON,ioos:station:LUMCON:101:1,2015-02-07T10:45:00Z,29.2533,-90.6633,1.0,7.3,95.0,-9999.0,'1111122,1111122,1111122' 
LUMCON,ioos:station:LUMCON:101:1,2015-02-07T11:45:00Z,29.2533,-90.6633,1.0,8.0,93.0,-9999.0,'1111122,1111122,1111122' 
LUMCON,ioos:station:LUMCON:101:1,2015-02-07T12:45:00Z,29.2533,-90.6633,1.0,5.4,82.0,-9999.0,'1111122,1111122,1111122' 
LUMCON,ioos:station:LUMCON:101:1,2015-02-07T13:45:00Z,29.2533,-90.6633,1.0,5.2,84.0,-9999.0,'1111122,1111122,1111122' 
LUMCON,ioos:station:LUMCON:101:1,2015-02-07T14:45:00Z,29.2533,-90.6633,1.0,7.4,95.0,-9999.0,'1111122,1111122,1111122' 
LUMCON,ioos:station:LUMCON:101:1,2015-02-07T15:45:00Z,29.2533,-90.6633,1.0,7.7,124.0,-9999.0,'1111122,1111122,1111122' 
LUMCON,ioos:station:LUMCON:101:1,2015-02-07T16:45:00Z,29.2533,-90.6633,1.0,9.1,119.0,-9999.0,'1111122,1111122,1111122' 
LUMCON,ioos:station:LUMCON:101:1,2015-02-07T17:45:00Z,29.2533,-90.6633,1.0,6.8,113.0,-9999.0,'1111122,1111122,1111122' 
LUMCON,ioos:station:LUMCON:101:1,2015-02-07T18:45:00Z,29.2533,-90.6633,1.0,6.2,100.0,-9999.0,'1111122,1111122,1111122' 
LUMCON,ioos:station:LUMCON:101:1,2015-02-07T19:45:00Z,29.2533,-90.6633,1.0,7.5,98.0,-9999.0,'1111122,1111122,1111122' 
LUMCON,ioos:station:LUMCON:101:1,2015-02-07T20:45:00Z,29.2533,-90.6633,1.0,6.1,101.0,-9999.0,'1111122,1111122,1111122' 
LUMCON,ioos:station:LUMCON:101:1,2015-02-07T21:45:00Z,29.2533,-90.6633,1.0,7.9,106.0,-9999.0,'1111122,1111122,1111122' 
LUMCON,ioos:station:LUMCON:101:1,2015-02-07T22:45:00Z,29.2533,-90.6633,1.0,8.3,112.0,-9999.0,'1111122,1111122,1111122' 
LUMCON,ioos:station:LUMCON:101:1,2015-02-07T23:45:00Z,29.2533,-90.6633,1.0,8.5,117.0,-9999.0,'1111122,1111122,1111122' 
LUMCON,ioos:station:LUMCON:101:1,2015-02-08T00:45:00Z,29.2533,-90.6633,1.0,9.5,115.0,-9999.0,'1111122,1111122,1111122' 
LUMCON,ioos:station:LUMCON:101:1,2015-02-08T01:45:00Z,29.2533,-90.6633,1.0,9.6,118.0,-9999.0,'1111122,1111122,1111122' 
LUMCON,ioos:station:LUMCON:101:1,2015-02-08T02:45:00Z,29.2533,-90.6633,1.0,9.8,123.0,-9999.0,'1111122,1111122,1111122' 
LUMCON,ioos:station:LUMCON:101:1,2015-02-08T03:45:00Z,29.2533,-90.6633,1.0,8.0,117.0,-9999.0,'1111122,1111122,1111122' 
LUMCON,ioos:station:LUMCON:101:1,2015-02-08T04:45:00Z,29.2533,-90.6633,1.0,6.4,122.0,-9999.0,'1111122,1111122,1111122' 
LUMCON,ioos:station:LUMCON:101:1,2015-02-08T05:45:00Z,29.2533,-90.6633,1.0,7.7,126.0,-9999.0,'1111122,1111122,1111122' 
LUMCON,ioos:station:LUMCON:101:1,2015-02-08T06:45:00Z,29.2533,-90.6633,1.0,5.3,160.0,-9999.0,'1111122,1111122,1111122' 
LUMCON,ioos:station:LUMCON:101:1,2015-02-08T07:45:00Z,29.2533,-90.6633,1.0,6.0,149.0,-9999.0,'1111122,1111122,1111122' 
LUMCON,ioos:station:LUMCON:101:1,2015-02-08T08:45:00Z,29.2533,-90.6633,1.0,6.4,124.0,-9999.0,'1111122,1111122,1111122' 
LUMCON,ioos:station:LUMCON:101:1,2015-02-08T09:45:00Z,29.2533,-90.6633,1.0,8.0,125.0,-9999.0,'1111122,1111122,1111122' 
LUMCON,ioos:station:LUMCON:101:1,2015-02-08T10:45:00Z,29.2533,-90.6633,1.0,11.3,146.0,-9999.0,'1111122,1111122,1111122' 
LUMCON,ioos:station:LUMCON:101:1,2015-02-08T11:45:00Z,29.2533,-90.6633,1.0,11.1,143.0,-9999.0,'1111122,1111122,1111122' 
LUMCON,ioos:station:LUMCON:101:1,2015-02-08T12:45:00Z,29.2533,-90.6633,1.0,11.2,143.0,-9999.0,'1111122,1111122,1111122' 
LUMCON,ioos:station:LUMCON:101:1,2015-02-08T13:45:00Z,29.2533,-90.6633,1.0,10.7,133.0,-9999.0,'1111122,1111122,1111122' 
LUMCON,ioos:station:LUMCON:101:1,2015-02-08T14:45:00Z,29.2533,-90.6633,1.0,10.3,156.0,-9999.0,'1111122,1111122,1111122' 
LUMCON,ioos:station:LUMCON:101:1,2015-02-08T15:45:00Z,29.2533,-90.6633,1.0,10.3,169.0,-9999.0,'1111122,1111122,1111122' 
LUMCON,ioos:station:LUMCON:101:1,2015-02-08T16:45:00Z,29.2533,-90.6633,1.0,8.0,175.0,-9999.0,'1111122,1111122,1111122' 
LUMCON,ioos:station:LUMCON:101:1,2015-02-08T17:45:00Z,29.2533,-90.6633,1.0,6.7,171.0,-9999.0,'1111122,1111122,1111122' 
LUMCON,ioos:station:LUMCON:101:1,2015-02-08T18:45:00Z,29.2533,-90.6633,1.0,5.2,155.0,-9999.0,'1111122,1111122,1111122' 
LUMCON,ioos:station:LUMCON:101:1,2015-02-08T19:45:00Z,29.2533,-90.6633,1.0,3.9,135.0,-9999.0,'1111122,1111122,1111122' 
LUMCON,ioos:station:LUMCON:101:1,2015-02-08T20:45:00Z,29.2533,-90.6633,1.0,4.6,120.0,-9999.0,'1111122,1111122,1111122' 
LUMCON,ioos:station:LUMCON:101:1,2015-02-08T21:45:00Z,29.2533,-90.6633,1.0,4.5,134.0,-9999.0,'1111122,1111122,1111122' 
LUMCON,ioos:station:LUMCON:101:1,2015-02-08T22:45:00Z,29.2533,-90.6633,1.0,5.2,127.0,-9999.0,'1111122,1111122,1111122' 
LUMCON,ioos:station:LUMCON:101:1,2015-02-08T23:45:00Z,29.2533,-90.6633,1.0,6.7,143.0,-9999.0,'1111122,1111122,1111122' 
LUMCON,ioos:station:LUMCON:101:1,2015-02-09T00:45:00Z,29.2533,-90.6633,1.0,3.8,174.0,-9999.0,'1111122,1111122,1111122' 
LUMCON,ioos:station:LUMCON:101:1,2015-02-09T01:45:00Z,29.2533,-90.6633,1.0,3.4,233.0,-9999.0,'1111122,1111122,1111122' 
LUMCON,ioos:station:LUMCON:101:1,2015-02-09T02:45:00Z,29.2533,-90.6633,1.0,4.0,272.0,-9999.0,'1111122,1111122,1111122' 
LUMCON,ioos:station:LUMCON:101:1,2015-02-09T03:45:00Z,29.2533,-90.6633,1.0,5.2,277.0,-9999.0,'1111122,1111122,1111122' 
LUMCON,ioos:station:LUMCON:101:1,2015-02-09T04:45:00Z,29.2533,-90.6633,1.0,3.4,279.0,-9999.0,'1111122,1111122,1111122' 
LUMCON,ioos:station:LUMCON:101:1,2015-02-09T05:45:00Z,29.2533,-90.6633,1.0,5.2,225.0,-9999.0,'1111122,1111122,1111122' 
LUMCON,ioos:station:LUMCON:101:1,2015-02-09T06:45:00Z,29.2533,-90.6633,1.0,4.9,236.0,-9999.0,'1111122,1111122,1111122' 
LUMCON,ioos:station:LUMCON:101:1,2015-02-09T07:45:00Z,29.2533,-90.6633,1.0,4.8,253.0,-9999.0,'1111122,1111122,1111122' 
LUMCON,ioos:station:LUMCON:101:1,2015-02-09T08:45:00Z,29.2533,-90.6633,1.0,6.7,234.0,-9999.0,'1111122,1111122,1111122' 
LUMCON,ioos:station:LUMCON:101:1,2015-02-09T09:45:00Z,29.2533,-90.6633,1.0,9.0,256.0,-9999.0,'1111122,1111122,1111122' 
LUMCON,ioos:station:LUMCON:101:1,2015-02-09T10:45:00Z,29.2533,-90.6633,1.0,11.2,273.0,-9999.0,'1111122,1111122,1111122' 
LUMCON,ioos:station:LUMCON:101:1,2015-02-09T11:45:00Z,29.2533,-90.6633,1.0,12.8,297.0,-9999.0,'1111122,1111122,1111122' 
LUMCON,ioos:station:LUMCON:101:1,2015-02-09T12:45:00Z,29.2533,-90.6633,1.0,9.2,280.0,-9999.0,'1111122,1111122,1111122' 